DELTA 1 DEB

Satellite information

Favourite Embed

Satellite Type and Status

DEBRISIN ORBIT

Key statistics

Satellite DELTA 1 DEB at a glance.

Uptime

17451

Days in orbit

Revolutions

≈ 14.0

Per day

Orbit

SSO

Sun Synchronous Orbit

Inclination

99.1

Latest

Satellite identification and parameters

Extended collection of information and parameters for DELTA 1 DEB.

Object identification

Identified? True

Debris? True

Object name: DELTA 1 DEB

International designator: 1978-026AF

Object number (NORAD): 12190

Object ID (CCSDS): 12190

Country: UNITED STATES OF AMERICA (US)

Current information (Y/N): Y

RCS size: SMALL

Orbital parameters

Period: 102.683 minutes

Inclination: 99.0647 deg

SMA: 7263.721 km

Apoapsis: 899.052 km

Periapsis: 872.121 km

RAAN: 297.8366 deg

Eccentricy: 0.00185382

Argument of periapsis: 35.296 deg

Mean anomaly: 28.2701 deg

Mean motion: 14.02374438 rev/day

Mean motion (dot): 0.00000562 rev/day2

B* drag term: 0.00039475841 1/REarth

Two-line elements (TLE)

Creation date: Dec. 12, 2025, 10:14 a.m.

Reference frame: TEME

Reference center: EARTH

Epoch: Dec. 12, 2025, 2:37 a.m. UTC

TLE line 0: 0 DELTA 1 DEB

TLE line 1: 1 12190U 78026AF 25346.10922519 .00000562 00000-0 39476-3 0 9990

TLE line 2: 2 12190 99.0647 297.8366 0018538 35.2960 28.2701 14.02374438290569

Live tracking on map

Real-time ground track for satellite DELTA 1 DEB.

In-orbit conjunctions

A list of the most updated potential collisions computed for object DELTA 1 DEB.

Target Orbit TCA Probability of collision Miss distance Type
TRANSIT 4A LEO 2025-11-17 00:07:16 0.0004080806 191.0 (m) PAYLOAD
COSMOS 1275 DEB LEO 2025-07-25 09:47:04 0.0001151541 15.0 (m) DEBRIS

Associated space launch

Earth observation satellite

DELTA 1 DEB was lifted into orbit during the mission ‘Delta 2910 | Landsat 3’, on board a Delta 2910 space rocket.

The launch took place on March 5, 1978, 5:54 p.m. from Space Launch Complex 2W.

For more information about the launch, click the button.

Launch to space Delta 2910 | Landsat 3
Delta 2910 | Landsat 3

Agency: N/A

Status: Launch Successful

Launch date: March 5, 1978, 5:54 p.m. UTC

Rocket: Delta 2910

Launch pad: Space Launch Complex 2W

Location: Vandenberg SFB, CA, USA

...

Latest news about this satellite

There are no fresh news available about this satellite. Check back as we update our databases every day.


Newsletter sign-up

Weekly statistics, charts and insights to help you stay on top of the space industry.